TAP22 LPSO-LPHR

Flight info

Callsign TAP22
Flight time 2h 25m
Altitude 36000
Route ESP UM744 BUSEN UZ21 GUNTI/M077F360 T25 LENSI DCT BAVAS H121 LM H123 SOLGI
Aircraft A20N/M-SDE2E3FGHIRWXY/LB1

Departure

Time 2026-05-09 01:00
Airport Aeródromo Municipal de Ponte de Sor (LPSO)

Arrival

Time 2026-05-09 03:25
Airport Horta Airport (LPHR)
Time Latitude Longitude Altitude Speed Heading
2026-05-09 00:27 39.20545 -8.05834 396 ft 0 kts 26°
2026-05-09 00:27 39.20601 -8.05790 393 ft 0 kts 26°
2026-05-09 00:54 39.20622 -8.05776 393 ft 7 kts 26°
2026-05-09 00:55 39.20670 -8.05775 393 ft 8 kts 338°
2026-05-09 00:55 39.20740 -8.05791 393 ft 13 kts 18°
2026-05-09 00:55 39.20838 -8.05738 393 ft 18 kts 26°
2026-05-09 00:55 39.20967 -8.05660 393 ft 23 kts 24°
2026-05-09 00:56 39.21124 -8.05568 393 ft 27 kts 25°
2026-05-09 00:56 39.21241 -8.05500 393 ft 29 kts 23°
2026-05-09 00:56 39.21410 -8.05405 393 ft 4 kts 23°
2026-05-09 00:56 39.21491 -8.05360 393 ft 19 kts 23°
2026-05-09 00:57 39.21585 -8.05307 393 ft 24 kts 24°
2026-05-09 00:57 39.21760 -8.05254 393 ft 28 kts 354°
2026-05-09 00:57 39.21815 -8.05261 393 ft 0 kts 355°
2026-05-09 00:58 39.21831 -8.05263 393 ft 5 kts 355°
2026-05-09 00:58 39.21889 -8.05270 393 ft 11 kts 353°
2026-05-09 00:58 39.21921 -8.05328 393 ft 4 kts 223°
2026-05-09 00:59 39.21894 -8.05349 392 ft 0 kts 203°
2026-05-09 00:59 39.21801 -8.05402 392 ft 60 kts 203°
2026-05-09 00:59 39.21083 -8.05815 394 ft 159 kts 203°
2026-05-09 00:59 39.19919 -8.06501 817 ft 203 kts 202°
2026-05-09 01:00 39.18564 -8.07371 1797 ft 228 kts 204°
2026-05-09 01:00 39.17185 -8.08367 3408 ft 231 kts 206°
2026-05-09 01:00 39.15766 -8.09418 4907 ft 239 kts 207°
2026-05-09 01:00 39.14333 -8.10543 6296 ft 244 kts 208°
2026-05-09 01:01 39.12909 -8.11763 6613 ft 245 kts 210°
2026-05-09 01:01 39.11494 -8.12992 6755 ft 246 kts 210°
2026-05-09 01:01 39.10047 -8.14188 6812 ft 247 kts 208°
2026-05-09 01:01 39.08582 -8.15343 6804 ft 246 kts 207°
2026-05-09 01:02 39.07116 -8.16463 6805 ft 245 kts 207°
2026-05-09 01:02 39.05723 -8.17701 6804 ft 250 kts 216°
2026-05-09 01:02 39.04476 -8.19274 6804 ft 252 kts 225°
2026-05-09 01:02 39.03393 -8.21045 6811 ft 253 kts 227°
2026-05-09 01:03 39.02293 -8.22835 7193 ft 246 kts 227°
2026-05-09 01:03 39.01245 -8.24518 8407 ft 244 kts 226°
2026-05-09 01:03 39.00154 -8.26251 9591 ft 254 kts 226°
2026-05-09 01:03 38.99012 -8.28041 10725 ft 262 kts 226°
2026-05-09 01:04 38.97828 -8.29938 11553 ft 284 kts 228°
2026-05-09 01:04 38.96561 -8.32023 12193 ft 307 kts 228°
2026-05-09 01:04 38.95225 -8.34228 13185 ft 316 kts 229°
2026-05-09 01:04 38.93858 -8.36474 14281 ft 321 kts 228°
2026-05-09 01:05 38.92471 -8.38736 15384 ft 324 kts 228°
2026-05-09 01:05 38.91083 -8.40983 16400 ft 328 kts 228°
2026-05-09 01:05 38.88200 -8.45632 18407 ft 336 kts 228°
2026-05-09 01:06 38.86732 -8.47996 19277 ft 341 kts 228°
2026-05-09 01:06 38.85238 -8.50398 20145 ft 345 kts 228°
2026-05-09 01:06 38.83731 -8.52821 21007 ft 349 kts 228°
2026-05-09 01:06 38.82201 -8.55279 21857 ft 354 kts 228°
2026-05-09 01:07 38.80673 -8.57733 22667 ft 359 kts 228°
2026-05-09 01:07 38.79101 -8.60254 23471 ft 364 kts 228°
2026-05-09 01:07 38.77515 -8.62797 24204 ft 366 kts 228°
2026-05-09 01:07 38.75916 -8.65362 24953 ft 368 kts 227°
2026-05-09 01:08 38.74309 -8.67935 25647 ft 371 kts 227°
2026-05-09 01:08 38.72689 -8.70527 26345 ft 374 kts 227°
2026-05-09 01:08 38.71069 -8.73117 26972 ft 380 kts 227°
2026-05-09 01:08 38.69394 -8.75790 27433 ft 387 kts 228°
2026-05-09 01:09 38.67709 -8.78479 28089 ft 389 kts 228°
2026-05-09 01:09 38.65998 -8.81207 28672 ft 393 kts 228°
2026-05-09 01:09 38.64285 -8.83936 29215 ft 396 kts 228°
2026-05-09 01:09 38.62546 -8.86703 29768 ft 400 kts 228°
2026-05-09 01:10 38.60795 -8.89486 30234 ft 403 kts 228°
2026-05-09 01:10 38.59027 -8.92292 30706 ft 406 kts 228°
2026-05-09 01:10 38.57250 -8.95113 31220 ft 407 kts 228°
2026-05-09 01:10 38.55478 -8.97922 31839 ft 406 kts 228°
2026-05-09 01:11 38.53705 -9.00730 32494 ft 403 kts 228°
2026-05-09 01:11 38.51950 -9.03508 33165 ft 401 kts 228°
2026-05-09 01:11 38.50200 -9.06274 33772 ft 400 kts 229°
2026-05-09 01:11 38.48476 -9.08996 34213 ft 400 kts 229°
2026-05-09 01:12 38.46740 -9.11811 34486 ft 406 kts 232°
2026-05-09 01:12 38.45297 -9.14936 34863 ft 411 kts 241°
2026-05-09 01:12 38.44274 -9.18356 35270 ft 416 kts 250°
2026-05-09 01:12 38.43704 -9.21989 35597 ft 422 kts 259°
2026-05-09 01:13 38.43618 -9.25757 35716 ft 427 kts 268°
2026-05-09 01:13 38.44628 -9.33349 35758 ft 443 kts 275°
2026-05-09 01:14 38.45824 -9.41175 35747 ft 450 kts 275°
2026-05-09 01:14 38.46997 -9.48974 35755 ft 451 kts 276°
2026-05-09 01:15 38.48172 -9.56854 35740 ft 451 kts 276°
2026-05-09 01:15 38.49342 -9.64737 35737 ft 451 kts 276°
2026-05-09 01:16 38.50501 -9.72592 35728 ft 452 kts 275°
2026-05-09 01:16 38.51659 -9.80479 35733 ft 452 kts 275°
2026-05-09 01:17 38.53393 -9.92371 35723 ft 454 kts 276°
2026-05-09 01:17 38.54545 -10.00303 35716 ft 454 kts 276°
2026-05-09 01:18 38.55489 -10.08267 35719 ft 459 kts 273°
2026-05-09 01:18 38.56356 -10.16460 35716 ft 468 kts 274°
2026-05-09 01:19 38.57259 -10.24699 35714 ft 473 kts 274°
2026-05-09 01:19 38.58184 -10.33057 35708 ft 475 kts 274°
2026-05-09 01:20 38.59105 -10.41430 35708 ft 475 kts 274°
2026-05-09 01:20 38.60018 -10.49806 35699 ft 475 kts 274°
2026-05-09 01:21 38.60920 -10.58138 35709 ft 475 kts 274°
2026-05-09 01:21 38.61819 -10.66513 35694 ft 475 kts 274°
2026-05-09 01:22 38.62711 -10.74861 35697 ft 475 kts 274°
2026-05-09 01:22 38.63605 -10.83293 35691 ft 476 kts 274°
2026-05-09 01:23 38.64036 -10.87360 35684 ft 458 kts 274°
2026-05-09 01:23 38.64458 -10.91346 35683 ft 450 kts 274°
2026-05-09 01:23 38.65291 -10.99359 35681 ft 454 kts 274°
2026-05-09 01:24 38.66118 -11.07331 35685 ft 453 kts 274°
2026-05-09 01:24 38.66944 -11.15334 35680 ft 454 kts 274°
2026-05-09 01:25 38.67763 -11.23333 35669 ft 453 kts 274°
2026-05-09 01:25 38.68578 -11.31339 35676 ft 453 kts 274°
2026-05-09 01:26 38.69382 -11.39321 35670 ft 453 kts 275°
2026-05-09 01:26 38.70187 -11.47321 35670 ft 453 kts 274°
2026-05-09 01:27 38.70984 -11.55322 35670 ft 453 kts 274°
2026-05-09 01:27 38.71777 -11.63333 35667 ft 453 kts 274°
2026-05-09 01:28 38.72561 -11.71318 35667 ft 453 kts 274°
2026-05-09 01:28 38.73342 -11.79320 35662 ft 453 kts 274°
2026-05-09 01:29 38.74118 -11.87335 35659 ft 453 kts 274°
2026-05-09 01:29 38.74891 -11.95386 35656 ft 456 kts 274°
2026-05-09 01:30 38.75659 -12.03429 35658 ft 455 kts 274°
2026-05-09 01:30 38.76416 -12.11431 35657 ft 454 kts 274°
2026-05-09 01:31 38.77172 -12.19469 35646 ft 454 kts 274°
2026-05-09 01:31 38.77926 -12.27550 35651 ft 454 kts 274°
2026-05-09 01:32 38.78666 -12.35537 35643 ft 454 kts 274°
2026-05-09 01:32 38.79404 -12.43588 35645 ft 454 kts 275°
2026-05-09 01:33 38.80138 -12.51630 35641 ft 454 kts 275°
2026-05-09 01:33 38.80865 -12.59665 35643 ft 454 kts 275°
2026-05-09 01:34 38.81588 -12.67712 35635 ft 454 kts 275°
2026-05-09 01:34 38.82300 -12.75707 35636 ft 454 kts 275°
2026-05-09 01:35 38.83008 -12.83727 35631 ft 452 kts 275°
2026-05-09 01:35 38.83712 -12.91746 35632 ft 452 kts 275°
2026-05-09 01:36 38.84410 -12.99773 35634 ft 452 kts 275°
2026-05-09 01:36 38.85104 -13.07815 35622 ft 455 kts 275°
2026-05-09 01:37 38.85788 -13.15821 35624 ft 454 kts 275°
2026-05-09 01:37 38.86471 -13.23875 35620 ft 454 kts 275°
2026-05-09 01:38 38.87152 -13.31942 35620 ft 454 kts 275°
2026-05-09 01:38 38.87829 -13.39988 35617 ft 454 kts 275°
2026-05-09 01:39 38.88491 -13.48030 35617 ft 454 kts 275°
2026-05-09 01:39 38.89142 -13.56015 35611 ft 452 kts 275°
2026-05-09 01:40 38.89796 -13.64054 35608 ft 452 kts 275°
2026-05-09 01:40 38.90444 -13.72081 35608 ft 452 kts 275°
2026-05-09 01:41 38.91082 -13.80069 35606 ft 452 kts 275°
2026-05-09 01:41 38.91718 -13.88097 35606 ft 450 kts 275°
2026-05-09 01:42 38.92345 -13.96091 35600 ft 449 kts 275°
2026-05-09 01:42 38.92965 -14.04044 35600 ft 449 kts 275°
2026-05-09 01:43 38.93581 -14.12040 35598 ft 449 kts 275°
2026-05-09 01:43 38.94196 -14.20078 35599 ft 454 kts 275°
2026-05-09 01:44 38.94799 -14.28046 35592 ft 450 kts 275°
2026-05-09 01:44 38.95401 -14.36061 35592 ft 450 kts 275°
2026-05-09 01:45 38.95996 -14.44055 35586 ft 450 kts 275°
2026-05-09 01:45 38.96586 -14.52068 35586 ft 450 kts 275°
2026-05-09 01:46 38.97075 -14.58758 35582 ft 450 kts 275°
2026-05-09 01:46 38.97653 -14.66746 35581 ft 449 kts 275°
2026-05-09 01:47 38.98226 -14.74735 35581 ft 449 kts 275°
2026-05-09 01:47 38.98794 -14.82736 35578 ft 449 kts 275°
2026-05-09 01:48 38.99354 -14.90703 35570 ft 449 kts 275°
2026-05-09 01:48 38.99910 -14.98687 35570 ft 447 kts 274°
2026-05-09 01:49 39.00123 -15.06696 35570 ft 447 kts 271°
2026-05-09 01:49 39.00287 -15.14641 35570 ft 447 kts 271°
2026-05-09 01:50 39.00454 -15.22660 35573 ft 447 kts 271°
2026-05-09 01:50 39.00613 -15.30644 35573 ft 447 kts 271°
2026-05-09 01:51 39.00762 -15.38645 35572 ft 450 kts 271°
2026-05-09 01:51 39.00904 -15.46659 35567 ft 450 kts 271°
2026-05-09 01:52 39.01041 -15.54705 35570 ft 450 kts 271°
2026-05-09 01:52 39.01174 -15.62793 35571 ft 450 kts 271°
2026-05-09 01:53 39.01299 -15.70807 35572 ft 449 kts 271°
2026-05-09 01:53 39.01420 -15.78836 35574 ft 448 kts 271°
2026-05-09 01:54 39.01534 -15.86842 35581 ft 447 kts 271°
2026-05-09 01:54 39.01642 -15.94838 35581 ft 448 kts 271°
2026-05-09 01:55 39.01745 -16.02806 35582 ft 443 kts 271°
2026-05-09 01:55 39.01842 -16.10746 35593 ft 447 kts 271°
2026-05-09 01:56 39.01934 -16.18701 35589 ft 443 kts 271°
2026-05-09 01:56 39.02021 -16.26667 35603 ft 446 kts 271°
2026-05-09 01:57 39.02102 -16.34635 35601 ft 444 kts 271°
2026-05-09 01:57 39.02177 -16.42547 35619 ft 447 kts 271°
2026-05-09 01:58 39.02213 -16.46573 35874 ft 448 kts 271°
2026-05-09 01:58 39.02248 -16.50551 36234 ft 447 kts 271°
2026-05-09 01:58 39.02281 -16.54558 36553 ft 447 kts 271°
2026-05-09 01:58 39.02313 -16.58574 36879 ft 448 kts 271°
2026-05-09 01:59 39.02344 -16.62588 37178 ft 448 kts 271°
2026-05-09 01:59 39.02373 -16.66606 37467 ft 448 kts 271°
2026-05-09 01:59 39.02401 -16.70565 37592 ft 447 kts 271°
2026-05-09 01:59 39.02427 -16.74554 37618 ft 444 kts 271°
2026-05-09 02:00 39.02476 -16.82533 37636 ft 447 kts 271°
2026-05-09 02:00 39.02519 -16.90499 37634 ft 447 kts 271°
2026-05-09 02:01 39.02557 -16.98487 37633 ft 448 kts 271°
2026-05-09 02:01 39.02589 -17.06511 37629 ft 446 kts 271°
2026-05-09 02:02 39.02616 -17.14435 37635 ft 445 kts 271°
2026-05-09 02:02 39.02638 -17.22427 37660 ft 445 kts 271°
2026-05-09 02:03 39.02654 -17.30382 37653 ft 445 kts 271°
2026-05-09 02:03 39.02664 -17.38320 37663 ft 445 kts 271°
2026-05-09 02:04 39.02669 -17.46293 37661 ft 443 kts 271°
2026-05-09 02:04 39.02669 -17.54238 37670 ft 444 kts 271°
2026-05-09 02:05 39.02664 -17.62142 37678 ft 444 kts 271°
2026-05-09 02:05 39.02653 -17.70062 37672 ft 444 kts 271°
2026-05-09 02:06 39.02636 -17.77978 37683 ft 443 kts 271°
2026-05-09 02:07 39.02602 -17.89857 37689 ft 443 kts 271°
2026-05-09 02:07 39.02572 -17.97813 37689 ft 443 kts 271°
2026-05-09 02:08 39.02537 -18.05717 37700 ft 443 kts 271°
2026-05-09 02:08 39.02496 -18.13648 37700 ft 442 kts 271°
2026-05-09 02:09 39.02451 -18.21551 37705 ft 442 kts 271°
2026-05-09 02:09 39.02401 -18.29458 37705 ft 445 kts 271°
2026-05-09 02:10 39.02344 -18.37438 37710 ft 444 kts 271°
2026-05-09 02:10 39.02282 -18.45350 37707 ft 444 kts 271°
2026-05-09 02:11 39.02214 -18.53310 37720 ft 444 kts 271°
2026-05-09 02:11 39.02142 -18.61232 37719 ft 444 kts 271°
2026-05-09 02:12 39.02064 -18.69148 37719 ft 444 kts 271°
2026-05-09 02:12 39.01980 -18.77097 37727 ft 444 kts 271°
2026-05-09 02:13 39.01892 -18.85030 37730 ft 444 kts 271°
2026-05-09 02:13 39.01797 -18.92968 37730 ft 444 kts 271°
2026-05-09 02:14 39.01698 -19.00878 37741 ft 444 kts 271°
2026-05-09 02:14 39.01593 -19.08845 37741 ft 444 kts 271°
2026-05-09 02:15 39.01482 -19.16745 37746 ft 442 kts 271°
2026-05-09 02:15 39.01367 -19.24640 37746 ft 443 kts 271°
2026-05-09 02:16 39.01246 -19.32573 37755 ft 443 kts 271°
2026-05-09 02:16 39.01120 -19.40496 37757 ft 443 kts 271°
2026-05-09 02:17 39.00989 -19.48361 37754 ft 440 kts 271°
2026-05-09 02:17 39.00853 -19.56243 37766 ft 440 kts 271°
2026-05-09 02:18 39.00712 -19.64081 37766 ft 440 kts 271°
2026-05-09 02:18 39.00565 -19.71988 37774 ft 440 kts 271°
2026-05-09 02:19 39.00415 -19.79800 37771 ft 440 kts 270°
2026-05-09 02:19 39.00260 -19.87621 37780 ft 436 kts 271°
2026-05-09 02:20 39.00105 -19.95444 37782 ft 436 kts 271°
2026-05-09 02:20 38.99981 -20.03206 37782 ft 436 kts 272°
2026-05-09 02:21 39.00116 -20.10998 37791 ft 435 kts 274°
2026-05-09 02:21 39.00266 -20.18734 37791 ft 433 kts 273°
2026-05-09 02:22 39.00386 -20.26502 37797 ft 434 kts 273°
2026-05-09 02:22 39.00489 -20.34212 37807 ft 434 kts 273°
2026-05-09 02:23 39.00585 -20.41990 37807 ft 434 kts 273°
2026-05-09 02:23 39.00675 -20.49716 37807 ft 431 kts 273°
2026-05-09 02:24 39.00761 -20.57397 37812 ft 430 kts 273°
2026-05-09 02:24 39.00842 -20.65120 37819 ft 430 kts 273°
2026-05-09 02:25 39.00918 -20.72817 37822 ft 430 kts 273°
2026-05-09 02:25 39.00988 -20.80491 37845 ft 432 kts 273°
2026-05-09 02:26 39.01053 -20.88209 37833 ft 431 kts 273°
2026-05-09 02:26 39.01114 -20.95938 37833 ft 431 kts 273°
2026-05-09 02:27 39.01169 -21.03607 37842 ft 431 kts 273°
2026-05-09 02:27 39.01219 -21.11322 37841 ft 431 kts 273°
2026-05-09 02:28 39.01264 -21.19029 37847 ft 429 kts 273°
2026-05-09 02:28 39.01305 -21.26690 37848 ft 430 kts 273°
2026-05-09 02:29 39.01340 -21.34388 37858 ft 430 kts 273°
2026-05-09 02:29 39.01370 -21.42069 37862 ft 430 kts 272°
2026-05-09 02:30 39.01394 -21.49781 37858 ft 429 kts 273°
2026-05-09 02:30 39.01414 -21.57426 37872 ft 429 kts 273°
2026-05-09 02:31 39.01430 -21.65124 37870 ft 429 kts 273°
2026-05-09 02:31 39.01439 -21.72782 37878 ft 429 kts 272°
2026-05-09 02:32 39.01444 -21.80440 37879 ft 429 kts 272°
2026-05-09 02:32 39.01444 -21.88089 37881 ft 429 kts 273°
2026-05-09 02:33 39.01439 -21.95773 37888 ft 431 kts 272°
2026-05-09 02:33 39.01429 -22.03489 37881 ft 430 kts 272°
2026-05-09 02:34 39.01413 -22.11188 37888 ft 431 kts 272°
2026-05-09 02:34 39.01393 -22.18837 37895 ft 431 kts 272°
2026-05-09 02:35 39.01372 -22.25266 37893 ft 431 kts 272°
2026-05-09 02:35 39.01342 -22.32956 37899 ft 431 kts 272°
2026-05-09 02:36 39.01308 -22.40601 37913 ft 431 kts 272°
2026-05-09 02:36 39.01267 -22.48306 37908 ft 431 kts 272°
2026-05-09 02:37 39.01223 -22.56016 37912 ft 431 kts 272°
2026-05-09 02:37 39.01173 -22.63730 37920 ft 431 kts 272°
2026-05-09 02:38 39.01118 -22.71385 37922 ft 431 kts 272°
2026-05-09 02:38 39.01058 -22.79129 37894 ft 431 kts 272°
2026-05-09 02:39 39.00992 -22.86784 37933 ft 431 kts 272°
2026-05-09 02:39 39.00923 -22.94500 37933 ft 431 kts 272°
2026-05-09 02:40 39.00848 -23.02214 37951 ft 432 kts 272°
2026-05-09 02:40 39.00768 -23.09945 37938 ft 433 kts 272°
2026-05-09 02:41 39.00681 -23.17618 37950 ft 432 kts 272°
2026-05-09 02:41 39.00591 -23.25326 37954 ft 432 kts 272°
2026-05-09 02:42 39.00495 -23.33051 37956 ft 432 kts 272°
2026-05-09 02:42 39.00394 -23.40789 37963 ft 432 kts 272°
2026-05-09 02:43 39.00287 -23.48468 37956 ft 428 kts 272°
2026-05-09 02:43 39.00179 -23.56134 37973 ft 429 kts 272°
2026-05-09 02:44 39.00068 -23.63795 37981 ft 429 kts 272°
2026-05-09 02:44 38.99810 -23.71426 37980 ft 431 kts 270°
2026-05-09 02:45 38.99429 -23.79091 37985 ft 426 kts 270°
2026-05-09 02:45 38.99069 -23.86711 37986 ft 427 kts 270°
2026-05-09 02:46 38.98694 -23.94303 37990 ft 427 kts 270°
2026-05-09 02:46 38.98306 -24.01954 37996 ft 427 kts 270°
2026-05-09 02:47 38.97913 -24.09553 37990 ft 425 kts 270°
2026-05-09 02:47 38.97519 -24.17131 38010 ft 429 kts 270°
2026-05-09 02:48 38.97116 -24.24786 38004 ft 429 kts 270°
2026-05-09 02:48 38.96707 -24.32430 38006 ft 429 kts 270°
2026-05-09 02:49 38.96293 -24.40070 37988 ft 427 kts 270°
2026-05-09 02:49 38.95879 -24.47618 38012 ft 425 kts 270°
2026-05-09 02:50 38.95458 -24.55230 38022 ft 426 kts 270°
2026-05-09 02:50 38.95033 -24.62814 38023 ft 426 kts 270°
2026-05-09 02:51 38.94605 -24.70358 38007 ft 426 kts 270°
2026-05-09 02:51 38.94169 -24.77937 38037 ft 424 kts 270°
2026-05-09 02:52 38.93731 -24.85498 38036 ft 424 kts 270°
2026-05-09 02:52 38.93291 -24.93008 38039 ft 424 kts 270°
2026-05-09 02:53 38.92844 -25.00543 38041 ft 424 kts 270°
2026-05-09 02:53 38.92392 -25.08049 38048 ft 420 kts 270°
2026-05-09 02:54 38.91936 -25.15585 38048 ft 421 kts 270°
2026-05-09 02:54 38.91481 -25.23021 38048 ft 421 kts 270°
2026-05-09 02:55 38.91016 -25.30529 38054 ft 421 kts 270°
2026-05-09 02:55 38.90549 -25.38003 38053 ft 422 kts 270°
2026-05-09 02:56 38.90073 -25.45556 38063 ft 425 kts 270°
2026-05-09 02:56 38.89590 -25.53101 38061 ft 425 kts 270°
2026-05-09 02:57 38.89103 -25.60650 38060 ft 425 kts 270°
2026-05-09 02:57 38.88610 -25.68200 38072 ft 422 kts 270°
2026-05-09 02:58 38.88117 -25.75689 38067 ft 423 kts 270°
2026-05-09 02:58 38.87618 -25.83197 38076 ft 423 kts 270°
2026-05-09 02:59 38.87112 -25.90743 38082 ft 423 kts 269°
2026-05-09 02:59 38.86603 -25.98244 38080 ft 419 kts 269°
2026-05-09 03:00 38.86096 -26.05655 38086 ft 419 kts 269°
2026-05-09 03:00 38.85585 -26.13115 38089 ft 419 kts 269°
2026-05-09 03:01 38.85064 -26.20558 38093 ft 419 kts 269°
2026-05-09 03:01 38.84535 -26.28012 38091 ft 417 kts 269°
2026-05-09 03:02 38.84007 -26.35412 38096 ft 417 kts 269°
2026-05-09 03:02 38.83478 -26.42786 38103 ft 417 kts 269°
2026-05-09 03:03 38.82938 -26.50230 38106 ft 417 kts 269°
2026-05-09 03:03 38.82398 -26.57607 38064 ft 416 kts 269°
2026-05-09 03:03 38.82125 -26.61289 37775 ft 411 kts 269°
2026-05-09 03:04 38.81857 -26.64905 37087 ft 409 kts 269°
2026-05-09 03:04 38.81588 -26.68520 36375 ft 405 kts 269°
2026-05-09 03:04 38.81319 -26.72110 35633 ft 400 kts 269°
2026-05-09 03:04 38.81053 -26.75643 34892 ft 394 kts 270°
2026-05-09 03:05 38.80793 -26.79089 34139 ft 389 kts 270°
2026-05-09 03:05 38.80533 -26.82544 33105 ft 388 kts 270°
2026-05-09 03:05 38.80276 -26.85975 31810 ft 393 kts 270°
2026-05-09 03:05 38.80011 -26.89512 30370 ft 401 kts 270°
2026-05-09 03:06 38.79742 -26.93061 29126 ft 404 kts 270°
2026-05-09 03:06 38.79463 -26.96649 28215 ft 398 kts 270°
2026-05-09 03:06 38.79189 -27.00133 27642 ft 385 kts 270°
2026-05-09 03:06 38.78926 -27.03455 27342 ft 373 kts 270°
2026-05-09 03:07 38.78667 -27.06814 26939 ft 378 kts 270°
2026-05-09 03:07 38.78388 -27.10159 26246 ft 383 kts 268°
2026-05-09 03:07 38.77886 -27.13504 25572 ft 383 kts 264°
2026-05-09 03:07 38.77314 -27.16848 24871 ft 378 kts 265°
2026-05-09 03:08 38.76764 -27.20098 24235 ft 371 kts 265°
2026-05-09 03:08 38.76225 -27.23301 23540 ft 368 kts 265°
2026-05-09 03:08 38.75689 -27.26490 22848 ft 363 kts 265°
2026-05-09 03:08 38.75161 -27.29625 22196 ft 357 kts 265°
2026-05-09 03:09 38.74638 -27.32726 21542 ft 352 kts 265°
2026-05-09 03:09 38.74125 -27.35758 20901 ft 349 kts 265°
2026-05-09 03:09 38.73611 -27.38798 20252 ft 345 kts 265°
2026-05-09 03:09 38.73110 -27.41756 19617 ft 342 kts 265°
2026-05-09 03:10 38.72607 -27.44716 18979 ft 340 kts 265°
2026-05-09 03:10 38.72102 -27.47688 18271 ft 338 kts 265°
2026-05-09 03:10 38.71608 -27.50591 17679 ft 333 kts 265°
2026-05-09 03:10 38.71119 -27.53450 17063 ft 329 kts 265°
2026-05-09 03:11 38.70628 -27.56311 16442 ft 326 kts 265°
2026-05-09 03:11 38.70144 -27.59134 15836 ft 323 kts 265°
2026-05-09 03:11 38.69661 -27.61947 15233 ft 321 kts 265°
2026-05-09 03:11 38.69186 -27.64710 14634 ft 319 kts 265°
2026-05-09 03:12 38.68710 -27.67480 14035 ft 317 kts 265°
2026-05-09 03:12 38.68241 -27.70203 13428 ft 315 kts 265°
2026-05-09 03:12 38.67772 -27.72926 12853 ft 311 kts 265°
2026-05-09 03:12 38.67306 -27.75628 12278 ft 308 kts 265°
2026-05-09 03:13 38.66385 -27.80998 11142 ft 330 kts 264°
2026-05-09 03:13 38.65880 -27.84010 10546 ft 351 kts 264°
2026-05-09 03:13 38.65362 -27.86958 10261 ft 336 kts 263°
2026-05-09 03:14 38.64845 -27.89843 10053 ft 321 kts 264°
2026-05-09 03:14 38.64363 -27.92545 9916 ft 307 kts 264°
2026-05-09 03:14 38.63902 -27.95141 9864 ft 287 kts 264°
2026-05-09 03:14 38.63478 -27.97557 9867 ft 281 kts 265°
2026-05-09 03:15 38.63054 -28.00013 9865 ft 281 kts 265°
2026-05-09 03:15 38.62724 -28.02436 9875 ft 275 kts 275°
2026-05-09 03:15 38.62982 -28.04782 9859 ft 264 kts 294°
2026-05-09 03:15 38.63683 -28.06953 9609 ft 265 kts 299°
2026-05-09 03:16 38.64417 -28.09133 9178 ft 263 kts 298°
2026-05-09 03:16 38.65118 -28.11237 8798 ft 256 kts 298°
2026-05-09 03:16 38.65812 -28.13350 8477 ft 255 kts 298°
2026-05-09 03:16 38.66504 -28.15454 8173 ft 262 kts 298°
2026-05-09 03:17 38.67215 -28.17617 7825 ft 261 kts 298°
2026-05-09 03:17 38.67912 -28.19753 7502 ft 264 kts 298°
2026-05-09 03:17 38.68629 -28.21935 7167 ft 265 kts 297°
2026-05-09 03:17 38.69325 -28.24074 6839 ft 260 kts 297°
2026-05-09 03:18 38.69841 -28.26311 6504 ft 270 kts 279°
2026-05-09 03:18 38.69549 -28.28694 6158 ft 277 kts 252°
2026-05-09 03:18 38.68611 -28.30878 5811 ft 281 kts 242°
2026-05-09 03:18 38.67524 -28.32938 5464 ft 278 kts 239°
2026-05-09 03:19 38.66420 -28.34976 5223 ft 279 kts 240°
2026-05-09 03:19 38.65335 -28.37037 5174 ft 277 kts 241°
2026-05-09 03:19 38.64289 -28.39105 5170 ft 279 kts 241°
2026-05-09 03:19 38.63257 -28.41196 5157 ft 276 kts 242°
2026-05-09 03:20 38.62235 -28.43283 4762 ft 278 kts 242°
2026-05-09 03:20 38.61212 -28.45376 4315 ft 278 kts 243°
2026-05-09 03:20 38.60073 -28.47406 3577 ft 286 kts 232°
2026-05-09 03:20 38.58739 -28.49197 3202 ft 270 kts 230°
2026-05-09 03:21 38.57466 -28.50860 2938 ft 249 kts 230°
2026-05-09 03:21 38.56301 -28.52390 2443 ft 230 kts 231°
2026-05-09 03:21 38.55227 -28.53820 1992 ft 216 kts 232°
2026-05-09 03:21 38.54307 -28.55101 1862 ft 180 kts 236°
2026-05-09 03:22 38.53598 -28.56278 1836 ft 162 kts 242°
2026-05-09 03:22 38.52987 -28.57445 1812 ft 153 kts 247°
2026-05-09 03:22 38.52504 -28.58620 1787 ft 149 kts 254°
2026-05-09 03:22 38.52138 -28.59847 1774 ft 144 kts 262°
2026-05-09 03:23 38.51936 -28.61106 1747 ft 145 kts 273°
2026-05-09 03:23 38.51852 -28.62378 1554 ft 144 kts 276°
2026-05-09 03:23 38.51832 -28.63622 1356 ft 137 kts 281°
2026-05-09 03:23 38.51863 -28.64812 1182 ft 136 kts 281°
2026-05-09 03:24 38.51858 -28.66022 937 ft 135 kts 279°
2026-05-09 03:24 38.51890 -28.67236 722 ft 137 kts 282°
2026-05-09 03:24 38.51943 -28.68423 539 ft 131 kts 281°
2026-05-09 03:24 38.51945 -28.69593 324 ft 131 kts 283°
2026-05-09 03:25 38.51991 -28.70790 143 ft 138 kts 282°
2026-05-09 03:25 38.52002 -28.71953 89 ft 103 kts 269°
2026-05-09 03:25 38.52001 -28.72464 67 ft 0 kts 300°
2026-05-09 03:25 38.52018 -28.72530 65 ft 4 kts 240°
2026-05-09 03:26 38.51993 -28.72521 67 ft 8 kts 139°
2026-05-09 03:26 38.51992 -28.72409 72 ft 20 kts 82°
2026-05-09 03:26 38.51991 -28.72245 71 ft 35 kts 89°
2026-05-09 03:26 38.51992 -28.71879 92 ft 45 kts 90°
2026-05-09 03:27 38.52050 -28.71637 94 ft 13 kts
2026-05-09 03:27 38.52085 -28.71649 94 ft 0 kts 351°
2026-05-09 03:27 38.52097 -28.71644 93 ft 2 kts 28°
2026-05-09 03:27 38.52101 -28.71622 93 ft 2 kts 105°
2026-05-09 03:28 38.52091 -28.71614 95 ft 1 kts 159°
2026-05-09 03:28 38.52090 -28.71614 95 ft 0 kts 171°